Карточка аэропорта UWLW

Внимание!
Информация на этой странице в стадии наполнения.
Если вы не увидели какой-то информации, или заметили неточность - пожалуйста сообщите нам!
Спасибо!
Команда RU-STAFF
Название аэропортаВосточный
Название аэропорта (англ.)Vostochny
Превышение252 ft. (76.8 m.)
Координаты54°24', 48°48'
Высота перехода900m
Эшелон переходаQFE>=726mm:FL050; QFE<726:FL060
Коды ответчика6725-6727
Зона ОрВДСамара РПИ (UWWW)
Данные METARUWLW 232200Z 01003MPS CAVOK 03/M04 Q1030 R02/CLRD60 NOSIG RMK QFE765/1021
Проноз погоды (TAF)UWLW 231952Z 2321/2421 36003MPS 9999 SCT030 TX20/2412Z TN02/2402Z TEMPO 2400/2415 03005G12MPS BECMG 2415/2417 30003G09MPS
NOTAMshow/hide NOTAM
AWOS   TABLE

Информация о ВПП

ВПП Длина ВПП (м.) Покрытие Курс ВПП Частота ILS
025000Железобетон20110.1
205000Железобетон200110.1

Диспетчерские позиции


Сценарии



Спутниковое изображение